Weather History for KTRL - February, 2014

Change the Weather History Date:

Saturday, February 22, 2014

  Actual Average (KDFW) Record (KDFW)
Temperature  
Mean Temperature 59 °F 52 °F  
Max Temperature 73 °F 62 °F 93 °F (1996)
Min Temperature 45 °F 41 °F 19 °F (1963)
Degree Days  
Heating Degree Days 6 14  
Month to date heating degree days 351  
Since 1 July heating degree days 1856  
Cooling Degree Days 0 0  
Month to date cooling degree days 0  
Year to date cooling degree days 2  
Growing Degree Days 9 (Base 50)    
Moisture  
Dew Point 39 °F    
Average Humidity 49    
Maximum Humidity 72    
Minimum Humidity 30    
Precipitation  
Precipitation 0.00 in 0.10 in 2.01 in (2000)
Month to date precipitation 2.03  
Year to date precipitation 4.16  
Snow  
Snow 0.00 in 0.00 in 2.70 in (1966)
Month to date snowfall 0.4  
Since 1 July snowfall 1.0  
Snow Depth -    
Sea Level Pressure  
Sea Level Pressure 29.94 in    
Wind  
Wind Speed 9 mph (South)    
Max Wind Speed 20 mph    
Max Gust Speed 25 mph    
Visibility 10 miles    
Events      
T = Trace of Precipitation, MM = Missing Value Source: NWS Daily Summary

Daily Weather History Graph

Daily Weather History Graph

Search for Another Location

Airport or City:

Trip Planner

Search our weather history database for the weather conditions in past years. The results will help you decide how hot, cold, wet, or windy it might be!

Date:

Astronomy

Feb. 22, 2014 Rise Set
Actual Time 7:00 AM CST 6:16 PM CST
Civil Twilight 6:35 AM CST 6:41 PM CST
Nautical Twilight 6:07 AM CST 7:10 PM CST
Astronomical Twilight 5:38 AM CST 7:38 PM CST
Moon 12:49 AM CST (2/22) 11:36 AM CST (2/22)
Length of Visible Light 12h 05m
Length of Day
11h 15m
Waning Gibbous, 50% of the Moon is Illuminated
Feb 22
Waning Gibbous
Mar 1
New
Mar 8
First Quarter
Mar 16
Full
Mar 23
Last Quarter

Hourly Weather History & Observations

Time (CST) Temp. Windchill Dew Point Humidity Pressure Visibility Wind Dir Wind Speed Gust Speed Precip Events Conditions
12:53 AM 50.0 °F - 32.0 °F 50% 30.03 in 10.0 mi South 6.9 mph - N/A   Clear
1:53 AM 51.1 °F - 32.0 °F 48% 30.04 in 10.0 mi South 6.9 mph - N/A   Clear
2:53 AM 52.0 °F - 30.9 °F 45% 30.01 in 10.0 mi South 8.1 mph - N/A   Clear
3:53 AM 51.1 °F - 30.0 °F 44% 30.01 in 10.0 mi South 8.1 mph - N/A   Clear
4:53 AM 48.9 °F - 30.9 °F 50% 30.01 in 10.0 mi South 6.9 mph - N/A   Clear
5:53 AM 48.0 °F - 33.1 °F 56% 30.02 in 10.0 mi South 5.8 mph - N/A   Clear
6:53 AM 45.0 °F 42.6 °F 32.0 °F 60% 30.02 in 10.0 mi South 4.6 mph - N/A   Clear
7:53 AM 46.9 °F - 35.1 °F 63% 30.02 in 10.0 mi South 6.9 mph - N/A   Clear
8:53 AM 53.1 °F - 35.1 °F 50% 30.02 in 10.0 mi South 10.4 mph - N/A   Clear
9:53 AM 57.0 °F - 39.0 °F 51% 30.02 in 10.0 mi South 13.8 mph - N/A   Clear
10:53 AM 63.0 °F - 44.1 °F 50% 30.00 in 10.0 mi South 11.5 mph - N/A   Clear
11:53 AM 68.0 °F - 42.1 °F 39% 29.97 in 10.0 mi South 18.4 mph 25.3 mph N/A   Clear
12:53 PM 69.1 °F - 41.0 °F 36% 29.92 in 10.0 mi South 19.6 mph - N/A   Clear
1:53 PM 71.1 °F - 43.0 °F 36% 29.87 in 10.0 mi SSE 17.3 mph - N/A   Clear
2:53 PM 73.0 °F - 39.9 °F 30% 29.85 in 10.0 mi South 15.0 mph - N/A   Clear
3:53 PM 73.0 °F - 39.9 °F 30% 29.84 in 10.0 mi South 18.4 mph - N/A   Clear
4:53 PM 73.0 °F - 42.1 °F 33% 29.83 in 10.0 mi South 12.7 mph 19.6 mph N/A   Clear
5:53 PM 68.0 °F - 43.0 °F 40% 29.83 in 10.0 mi South 9.2 mph - N/A   Clear
6:53 PM 63.0 °F - 42.1 °F 46% 29.85 in 10.0 mi South 5.8 mph - N/A   Clear
7:53 PM 61.0 °F - 43.0 °F 52% 29.87 in 10.0 mi SSE 5.8 mph - N/A   Clear
8:53 PM 60.1 °F - 46.0 °F 60% 29.88 in 10.0 mi SSE 4.6 mph - N/A   Clear
9:53 PM 57.9 °F - 46.9 °F 67% 29.89 in 10.0 mi South 9.2 mph - N/A   Clear
10:53 PM 60.1 °F - 50.0 °F 69% 29.89 in 10.0 mi South 10.4 mph - N/A   Clear
11:53 PM 57.9 °F - 48.9 °F 72% 29.90 in 10.0 mi South 9.2 mph - N/A   Clear